Change the Weather History Date:

Tuesday, May 14, 2013

  Actual Average Record
Temperature  
Mean Temperature 90 °F -  
Max Temperature 98 °F 96 °F 107 °F (2000)
Min Temperature 81 °F 80 °F 77 °F (2003)
Cooling Degree Days 24    
Growing Degree Days 40 (Base 50)    
Moisture  
Dew Point 75 °F    
Average Humidity 65    
Maximum Humidity 85    
Minimum Humidity 33    
Precipitation  
Precipitation 0.00 in 0.07 in - ()
Sea Level Pressure  
Sea Level Pressure 29.57 in    
Wind  
Wind Speed 5 mph ()    
Max Wind Speed 14 mph    
Max Gust Speed -    
Visibility 3.4 miles    
Events      
Averages and records for this station are not official NWS values.
T = Trace of Precipitation, MM = Missing Value Source: Averaged Metar Reports

Daily Weather History Graph

Daily Weather History Graph

Search for Another Location

Airport or City:

Trip Planner

Search our weather history database for the weather conditions in past years. The results will help you decide how hot, cold, wet, or windy it might be!

Date:

Astronomy

May. 14, 2013 Rise Set
Actual Time 5:44 AM IST 6:27 PM IST
Civil Twilight 5:21 AM IST 6:49 PM IST
Nautical Twilight 4:55 AM IST 7:16 PM IST
Astronomical Twilight 4:28 AM IST 7:43 PM IST
Moon 8:59 AM IST (5/14) 9:59 PM IST (5/14)
Length of Visible Light 13h 28m
Length of Day
12h 43m
Waxing Crescent, 16% of the Moon is Illuminated
May 14
Waxing Crescent
May 18
First Quarter
May 25
Full
Jun 1
Last Quarter
Jun 8
New

Hourly Weather History & Observations

Time (IST) Temp. Heat Index Dew Point Humidity Pressure Visibility Wind Dir Wind Speed Gust Speed Precip Events Conditions
12:10 AM 84.2 °F 92.3 °F 75.2 °F 74% 29.59 in 3.7 mi South 4.6 mph - N/A   Mostly Cloudy
12:40 AM 84.2 °F 92.3 °F 75.2 °F 74% 29.56 in 3.7 mi South 6.9 mph - N/A   Mostly Cloudy
2:10 AM 84.2 °F 90.9 °F 73.4 °F 70% 29.56 in 3.7 mi South 4.6 mph - N/A   Mostly Cloudy
2:30 AM 84 °F - 77 °F 74% 29.60 in 2 mi Calm Calm - -   Scattered Clouds
2:40 AM 84.2 °F 92.3 °F 75.2 °F 74% 29.56 in 3.7 mi South 5.8 mph - N/A   Mostly Cloudy
3:10 AM 82.4 °F 89.5 °F 75.2 °F 79% 29.56 in 3.7 mi SSW 5.8 mph - N/A   Mostly Cloudy
3:40 AM 82.4 °F 89.5 °F 75.2 °F 79% 29.56 in 3.7 mi South 4.6 mph - N/A   Mostly Cloudy
4:10 AM 82.4 °F 89.5 °F 75.2 °F 79% 29.56 in 3.7 mi South 4.6 mph - N/A   Mostly Cloudy
4:40 AM 82.4 °F 89.5 °F 75.2 °F 79% 29.56 in 3.7 mi SSW 4.6 mph - N/A   Mostly Cloudy
5:30 AM 83 °F - 79 °F 85% 29.60 in 2 mi Calm Calm - -   Scattered Clouds
6:10 AM 82.4 °F 89.5 °F 75.2 °F 79% 29.56 in 2.5 mi SSW 6.9 mph - N/A   Haze
6:40 AM 82.4 °F 89.5 °F 75.2 °F 79% 29.59 in 2.5 mi SW 6.9 mph - N/A   Haze
7:10 AM 84.2 °F 94.1 °F 77.0 °F 79% 29.59 in 2.5 mi SW 6.9 mph - N/A   Haze
7:40 AM 84.2 °F 92.3 °F 75.2 °F 74% 29.59 in 2.5 mi SW 6.9 mph - N/A   Haze
8:10 AM 86.0 °F 95.1 °F 75.2 °F 70% 29.62 in 2.5 mi SW 6.9 mph - N/A   Haze
8:30 AM 87 °F - 77 °F 66% 29.65 in 6 mi Calm Calm - -   Scattered Clouds
8:40 AM 86.0 °F 95.1 °F 75.2 °F 70% 29.62 in 2.5 mi WSW 6.9 mph - N/A   Haze
9:10 AM 87.8 °F 95.6 °F 73.4 °F 62% 29.62 in 2.5 mi West 8.1 mph - N/A   Haze
10:10 AM 91.4 °F 98.4 °F 71.6 °F 52% 29.62 in 3.7 mi West 6.9 mph - N/A   Mostly Cloudy
10:40 AM 93.2 °F 100.5 °F 71.6 °F 49% 29.62 in 3.7 mi NW 6.9 mph - N/A   Mostly Cloudy
11:10 AM 95.0 °F 103.2 °F 71.6 °F 47% 29.59 in 3.7 mi WNW 4.6 mph - N/A   Mostly Cloudy
11:30 AM 96 °F - 73 °F 38% 29.62 in 6 mi WNW 2.3 mph - -   Scattered Clouds
11:40 AM 95.0 °F 104.5 °F 73.4 °F 49% 29.59 in 3.7 mi NNW 8.1 mph - N/A   Mostly Cloudy
12:10 PM 95.0 °F 103.2 °F 71.6 °F 47% 29.59 in 3.7 mi NW 5.8 mph - N/A   Mostly Cloudy
12:40 PM 96.8 °F 107.3 °F 73.4 °F 47% 29.56 in 3.7 mi NNW 4.6 mph - N/A   Mostly Cloudy
1:10 PM 96.8 °F 103.1 °F 69.8 °F 41% 29.56 in 3.7 mi WNW 4.6 mph - N/A   Mostly Cloudy
1:40 PM 95.0 °F 101.3 °F 69.8 °F 44% 29.53 in 3.7 mi NW 3.5 mph - N/A   Mostly Cloudy
2:10 PM 96.8 °F 103.1 °F 69.8 °F 41% 29.53 in 3.7 mi WNW 3.5 mph - N/A   Mostly Cloudy
2:30 PM 98 °F - 72 °F 33% 29.55 in 6 mi North 3.5 mph - -   Overcast
2:40 PM 96.8 °F 103.1 °F 69.8 °F 41% 29.50 in 3.7 mi NW 2.3 mph - N/A   Mostly Cloudy
4:10 PM 93.2 °F 102.4 °F 73.4 °F 52% 29.50 in 3.1 mi ESE 8.1 mph - N/A   Haze
4:40 PM 91.4 °F 102.5 °F 75.2 °F 59% 29.50 in 3.1 mi SE 6.9 mph - N/A   Haze
5:10 PM 91.4 °F 100.1 °F 73.4 °F 55% 29.50 in 3.1 mi SE 6.9 mph - N/A   Haze
5:30 PM 91 °F - 78 °F 57% 29.54 in 6 mi East 3.5 mph - -   Overcast
5:40 PM 91.4 °F 100.1 °F 73.4 °F 55% 29.50 in 3.1 mi ESE 6.9 mph - N/A   Haze
6:10 PM 89.6 °F 98.2 °F 73.4 °F 59% 29.50 in 3.1 mi ESE 6.9 mph - N/A   Haze
6:40 PM 89.6 °F 98.2 °F 73.4 °F 59% 29.53 in 3.1 mi SE 5.8 mph - N/A   Haze
7:10 PM 87.8 °F 95.6 °F 73.4 °F 62% 29.53 in 3.1 mi SE 4.6 mph - N/A   Haze
7:40 PM 87.8 °F 97.6 °F 75.2 °F 66% 29.56 in 3.1 mi SSE 5.8 mph - N/A   Haze
8:10 PM 87.8 °F 97.6 °F 75.2 °F 66% 29.56 in 3.1 mi SE 8.1 mph - N/A   Haze
8:30 PM 88 °F - 80 °F 72% 29.61 in 2 mi East 2.3 mph - -   Partly Cloudy
8:40 PM 87.8 °F 99.7 °F 77.0 °F 70% 29.56 in 3.1 mi SE 6.9 mph - N/A   Haze
9:10 PM 87.8 °F 99.7 °F 77.0 °F 70% 29.59 in 3.1 mi SSE 10.4 mph - N/A   Haze
9:40 PM 86.0 °F 99.3 °F 78.8 °F 79% 29.59 in 3.1 mi SSE 11.5 mph - N/A   Haze
10:10 PM 86.0 °F 101.9 °F 80.6 °F 84% 29.59 in 3.1 mi SSE 11.5 mph - N/A   Haze
10:40 PM 86.0 °F 101.9 °F 80.6 °F 84% 29.59 in 3.1 mi SSE 11.5 mph - N/A   Haze
11:10 PM 86.0 °F 101.9 °F 80.6 °F 84% 29.59 in 3.1 mi SSE 9.2 mph - N/A   Haze
11:30 PM 87 °F - 83 °F 84% 29.63 in 2 mi SE 3.5 mph - -   Partly Cloudy
11:40 PM 86.0 °F 101.9 °F 80.6 °F 84% 29.59 in 3.1 mi South 13.8 mph - N/A   Haze